Flag for U.S.A. Weather past 2 weeks in Black Mountain, North Carolina, U.S.A.

57 °F


Feels Like: 57 °F
Forecast: 54 / 72 °F
Wind: No wind

Location: Asheville Regional Airport

Current Time: Oct 9, 2015 at 3:54:09 AM

Latest Report: Oct 9, 2015 at 2:54 AM

Visibility: 10 mi

Pressure: 30.10 "Hg (27.60 "Hg at 729m altitude)

Humidity: 90%

Dew point: 54 °F

Location of Black MountainLocation

Historic Weather in Black Mountain — Graph


Black Mountain temperature yesterday

Maximum temperature yesterday: 75 °F (at 1:54 PM)
Minimum temperature yesterday: 52 °F (at 6:04 AM)
Average temperature yesterday: 62 °F

Past Weeks' High & Low Weather Summary

High80 °F (Sep 30, 2:54 PM)97% (Oct 8, 6:04 AM)30.25 "Hg (Oct 8, 6:04 AM)
Low52 °F (Oct 8, 6:04 AM)24% (Sep 24, 12:54 PM)29.75 "Hg (Oct 3, 6:54 AM)
Average63 °F81%30.00 "Hg
* Reported Sep 24 2:54 AM — Oct 9 2:54 AM, Black Mountain, Weather by CustomWeather, © 2015

Note: Actual official high and low records may vary slightly from our data, if they occured in-between our weather recording intervals... More about our weather records


Black Mountain weather history for previous 24 hours

Time TempWeatherWind HumidityBarometerVisibility
2:54 AM
Fri, Oct 9
57 °FClear.No wind90%30.10 "Hg10 mi
1:54 AM59 °FClear.3 mph87%30.09 "Hg10 mi
12:54 AM60 °FClear.No wind83%30.11 "Hg10 mi
11:54 PM
Thu, Oct 8
61 °FClear.5 mph81%30.12 "Hg10 mi
10:54 PM62 °FClear.5 mph78%30.13 "Hg10 mi
9:54 PM64 °FClear.6 mph75%30.14 "Hg10 mi
8:54 PM65 °FPassing clouds.6 mph73%30.13 "Hg10 mi
7:54 PM66 °FScattered clouds.7 mph73%30.12 "Hg10 mi
6:54 PM70 °FSunny.7 mph61%30.10 "Hg10 mi
5:54 PM74 °FPassing clouds.10 mph53%30.08 "Hg10 mi
4:54 PM74 °FPassing clouds.9 mph53%30.08 "Hg10 mi
3:54 PM75 °FScattered clouds.7 mph50%30.08 "Hg10 mi
2:54 PM75 °FPassing clouds.9 mph50%30.10 "Hg10 mi
1:54 PM75 °FPartly sunny.8 mph50%30.12 "Hg10 mi
12:54 PM73 °FScattered clouds.6 mph57%30.14 "Hg10 mi
11:54 AM70 °FSunny.5 mph64%30.16 "Hg10 mi
10:54 AM65 °FSunny.No wind73%30.17 "Hg10 mi
10:01 AM57 °FFog.No wind93%30.23 "Hg6 mi
8:54 AM54 °FFog.No wind97%30.18 "Hg0 mi
7:54 AM53 °FFog.No wind96%30.15 "Hg0 mi
7:01 AM53 °FFog.No wind96%30.19 "Hg1 mi
6:04 AM52 °FFog.No wind97%30.18 "Hg2 mi
5:54 AM53 °FFog.No wind93%30.12 "Hg1 mi
5:02 AM53 °FFog.No wind93%30.17 "Hg2 mi
4:54 AM53 °FFog.No wind93%30.11 "Hg4 mi
3:54 AM55 °FClear.No wind90%30.10 "Hg10 mi
Weather by CustomWeather, © 2015

See weather overviewHow to use our weather pages